COSMOS 2550 (48865 NORAD) Tracking and Keplerian Element Data

This shows tracking and keplerian element data for the satellite.

Feedback or suggestion? Click here.




ElementValue
Catalog48865
NameCOSMOS 2550
Epoch Orbit1417
Epoch Day269.10044946
Epoch Year2021
RAAN278.6575
Inclination67.1561
Eccentricity0.0014004
Argument of Perigee228.2209
Mean Anonmoly198.0971
Mean Motion15.32116563
Decay Rate0.00298058
L11 48865U 21056A 21269.10044946 .00298058 00000-0 91827-2 0 9994
L22 48865 67.1561 278.6575 0014004 228.2209 198.0971 15.32116563 14174

Live tracking and technical data element details for COSMOS 2550 (NORAD 48865). COSMOS 2550 can be tracked NOW for your location showing map with azimuth and elevation plus other details from your city location.

Track the satellite on the map from your city or location and see movement details for azimuth, elevation, latitude, longitude, range, height, and movement on the map or in text.







IsCatalogInMostPopularTable: catalog: 48865, numindb: 21
Update: records affected: 1



GetName: 48865 COSMOS 2550

Hit Count: updated at: Sun, 26 Sep 2021 16:13:58 GMT